This is the latest recevied weather packets stored in our database for station/object KD7CTY. If no packets are shown the sender has not sent any weather packets the latest 10 day(s).
| Time | Temp. | Humidity | Pressure | Rain* | Wind** | Luminosity | Snow |
|---|---|---|---|---|---|---|---|
| 1777933268 | 23.89° C | 56% | 1009.5 hPa | 0 mm | - | 641 W/m² | - |
| 1777932965 | 23.89° C | 56% | 1009.8 hPa | 0 mm | - | 658 W/m² | - |
| 1777932662 | 23.89° C | 56% | 1009.4 hPa | 0 mm | - | 671 W/m² | - |
| 1777932358 | 23.89° C | 56% | 1009.6 hPa | 0 mm | - | 677 W/m² | - |
| 1777932056 | 23.89° C | 56% | 1009.7 hPa | 0 mm | - | 685 W/m² | - |
| 1777931752 | 23.89° C | 59% | 1009.6 hPa | 0 mm | - | 696 W/m² | - |
| 1777931450 | 22.78° C | 57% | 1009.7 hPa | 0 mm | - | 704 W/m² | - |
| 1777931145 | 23.33° C | 58% | 1010.1 hPa | 0 mm | - | 680 W/m² | - |
| 1777930842 | 23.33° C | 57% | 1009.7 hPa | 0 mm | - | 594 W/m² | - |
| 1777930538 | 23.89° C | 57% | 1009.9 hPa | 0 mm | - | 718 W/m² | - |
| 1777930236 | 23.89° C | 58% | 1009.8 hPa | 0 mm | - | 660 W/m² | - |
| 1777929931 | 23.33° C | 57% | 1010.1 hPa | 0 mm | - | 711 W/m² | - |
| 1777929629 | 22.78° C | 57% | 1009.9 hPa | 0 mm | - | 700 W/m² | - |
| 1777929326 | 22.78° C | 58% | 1010 hPa | 0 mm | - | 612 W/m² | - |
| 1777929023 | 23.89° C | 54% | 1010 hPa | 0 mm | - | 691 W/m² | - |
| 1777928720 | 23.89° C | 55% | 1010 hPa | 0 mm | - | 709 W/m² | - |
| 1777928416 | 22.78° C | 58% | 1010.1 hPa | 0 mm | - | 663 W/m² | - |
| 1777928115 | 23.89° C | 56% | 1010.1 hPa | 0 mm | - | 609 W/m² | - |
| 1777927812 | 23.33° C | 54% | 1010.1 hPa | 0 mm | - | 658 W/m² | - |
| 1777927510 | 23.33° C | 56% | 1010.2 hPa | 0 mm | - | 649 W/m² | - |
| 1777927209 | 22.78° C | 54% | 1010.2 hPa | 0 mm | - | 715 W/m² | - |
| 1777926907 | 22.78° C | 57% | 1010.3 hPa | 0 mm | - | 743 W/m² | - |
| 1777926603 | 22.78° C | 56% | 1010 hPa | 0 mm | - | 705 W/m² | - |
| 1777926299 | 23.33° C | 61% | 1010.3 hPa | 0 mm | - | 625 W/m² | - |
| 1777925996 | 22.78° C | 59% | 1010 hPa | 0 mm | - | 651 W/m² | - |
* Rain latest hour (hover to see other rain measurements)
** Current wind speed in m/s (hover to see current wind gust speed)